This demonstration page uses our WeatherBlox Daily Observations layout. Learn more.

Left ArrowRight Arrow

39.08367, -84.50855

Hourly Observations for November 27, 2021

Temp ( °F °C ) Dew Point ( °F °C ) Humidity (%) Winds ( mph kmh ) Pressure ( in mb ) Visibility ( mi km ) Precip ( " mm )
12:53 am 00:53 Mostly Clear 28 -2.2 22 -5.6 78 78 N N/A 30.14 1021 10 16 N/A
1:53 am 01:53 Mostly Cloudy 30 -1.1 24 -4.4 79 79 N N/A 30.14 1021 10 16 N/A
2:53 am 02:53 Cloudy 31 -0.6 24 -4.4 76 76 N N/A 30.15 1021 10 16 N/A
3:53 am 03:53 Mostly Clear 31 -0.6 24 -4.4 76 76 N N/A 30.13 1020 10 16 N/A
4:53 am 04:53 Cloudy 31 -0.6 25 -3.9 79 79 S 3 6 30.11 1020 10 16 N/A
5:53 am 05:53 Cloudy 32 undefined 24 -4.4 73 73 SSW 6 9 30.11 1020 10 16 N/A
6:53 am 06:53 Cloudy 32 undefined 23 -5 69 69 S 3 6 30.11 1020 10 16 N/A
7:53 am 07:53 Cloudy 33 0.6 23 -5 66 66 N N/A 30.11 1020 10 16 N/A
8:53 am 08:53 Cloudy 34 1.1 24 -4.4 67 67 S 8 13 30.09 1019 10 16 N/A
9:53 am 09:53 Partly Cloudy 37 2.8 24 -4.4 59 59 S 9 15 30.06 1018 10 16 N/A
10:53 am 10:53 Mostly Cloudy 41 5 24 -4.4 51 51 S 10 17 30.04 1017 10 16 N/A
11:53 am 11:53 Cloudy 43 6.1 23 -5 45 45 S 12 19 30.01 1016 10 16 N/A
12:53 pm 12:53 Cloudy 47 8.3 25 -3.9 42 42 SSW 13 20 29.96 1015 10 16 N/A
1:53 pm 13:53 Sunny 47 8.3 27 -2.8 46 46 S 14 22 29.92 1013 10 16 N/A
2:53 pm 14:53 Cloudy 48 8.9 27 -2.8 44 44 SSW 14 22 29.91 1013 10 16 N/A
3:53 pm 15:53 Cloudy 48 8.9 30 -1.1 50 50 WSW 3 6 29.91 1013 10 16 N/A
4:53 pm 16:53 Partly Cloudy 47 8.3 31 -0.6 54 54 SW 8 13 29.90 1013 10 16 0.00 0.00
5:53 pm 17:53 Mostly Clear 45 7.2 30 -1.1 56 56 N N/A 29.91 1013 10 16 N/A
6:53 pm 18:53 Mostly Clear 40 4.4 35 1.7 83 83 N N/A 29.90 1012 10 16 N/A
7:53 pm 19:53 Cloudy 41 5 35 1.7 79 79 N N/A 29.90 1012 10 16 N/A
8:53 pm 20:53 Partly Cloudy 40 4.4 33 0.6 77 77 N N/A 29.88 1012 10 16 0.00 0.00
9:53 pm 21:53 Mostly Clear 38 3.3 34 1.1 86 86 N N/A 29.87 1012 10 16 N/A
10:53 pm 22:53 Clear 36 2.2 33 0.6 89 89 N N/A 29.88 1012 10 16 N/A
11:53 pm 23:53 Clear 32 undefined 31 -0.6 96 96 NE 3 6 29.88 1012 10 16 N/A

Powered by AerisWeather